TimeEST,TemperatureF,Dew PointF,Humidity,Sea Level PressureIn,VisibilityMPH,Wind Direction,Wind SpeedMPH,Gust SpeedMPH,PrecipitationIn,Events,Conditions,WindDirDegrees,DateUTC
12:54 AM,21.9,19.0,89,30.35,-9999.0,North,-9999.0,-,N/A,,Unknown,0,2012-11-16 05:54:00
1:54 AM,21.0,19.0,92,30.36,-9999.0,North,-9999.0,-,N/A,,Unknown,0,2012-11-16 06:54:00
2:54 AM,19.9,17.1,89,30.35,-9999.0,North,-9999.0,-,N/A,,Unknown,0,2012-11-16 07:54:00
3:54 AM,19.9,17.1,89,30.35,-9999.0,North,-9999.0,-,N/A,,Unknown,0,2012-11-16 08:54:00
4:54 AM,19.0,17.1,92,30.36,-9999.0,North,-9999.0,-,N/A,,Unknown,0,2012-11-16 09:54:00
5:54 AM,18.0,16.0,92,30.37,-9999.0,North,-9999.0,-,N/A,,Unknown,0,2012-11-16 10:54:00
6:54 AM,18.0,16.0,92,30.39,-9999.0,North,-9999.0,-,N/A,,Unknown,0,2012-11-16 11:54:00
7:54 AM,19.9,17.1,89,30.40,-9999.0,North,-9999.0,-,N/A,,Unknown,0,2012-11-16 12:54:00
8:54 AM,21.9,19.0,89,30.40,-9999.0,North,-9999.0,-,N/A,,Unknown,0,2012-11-16 13:54:00
9:54 AM,27.0,21.9,81,30.40,-9999.0,North,-9999.0,-,N/A,,Unknown,0,2012-11-16 14:54:00
10:54 AM,34.0,25.0,70,30.38,-9999.0,North,-9999.0,-,N/A,,Unknown,0,2012-11-16 15:54:00
11:54 AM,39.0,26.1,60,30.35,-9999.0,North,-9999.0,-,N/A,,Unknown,0,2012-11-16 16:54:00
12:54 PM,41.0,24.1,51,30.34,-9999.0,North,-9999.0,-,N/A,,Unknown,0,2012-11-16 17:54:00
1:54 PM,42.1,23.0,47,30.34,-9999.0,North,-9999.0,-,N/A,,Unknown,0,2012-11-16 18:54:00
2:54 PM,41.0,23.0,49,30.35,-9999.0,North,-9999.0,-,N/A,,Unknown,0,2012-11-16 19:54:00
3:54 PM,39.0,23.0,53,30.39,-9999.0,North,-9999.0,-,N/A,,Unknown,0,2012-11-16 20:54:00
4:54 PM,37.0,23.0,57,30.40,-9999.0,North,-9999.0,-,N/A,,Unknown,0,2012-11-16 21:54:00
5:54 PM,32.0,23.0,69,30.43,-9999.0,North,-9999.0,-,N/A,,Unknown,0,2012-11-16 22:54:00
6:54 PM,30.0,24.1,79,30.45,-9999.0,North,-9999.0,-,N/A,,Unknown,0,2012-11-16 23:54:00
7:54 PM,28.9,23.0,78,30.46,-9999.0,North,-9999.0,-,N/A,,Unknown,0,2012-11-17 00:54:00
8:54 PM,27.0,23.0,85,30.48,-9999.0,North,-9999.0,-,N/A,,Unknown,0,2012-11-17 01:54:00
9:54 PM,28.0,25.0,88,30.49,-9999.0,North,-9999.0,-,N/A,,Unknown,0,2012-11-17 02:54:00
10:54 PM,28.9,24.1,82,30.49,-9999.0,North,-9999.0,-,N/A,,Unknown,0,2012-11-17 03:54:00
11:54 PM,28.9,24.1,82,30.48,-9999.0,North,-9999.0,-,N/A,,Unknown,0,2012-11-17 04:54:00